SCP
0 0 0 0 -0 -0 0 0 0 -0 -0 -0 0 0 0 0 0 0 0 0 0 0 0 0 0 0 0 0 0 0 0 0 0 0 -0 0 0 0 0 0 0 0 0 0
0 0 0 0 0 0 0 0 0 0 -0 0 0 0 0 0 0 0 0 0 0 0 0 0 0 0 0 0 0 0 0 0 0 0 0 0 0 0 0 0 0 0 0 0
0 0 0 0 -0 0 0 0 0 0 0 0 0 0 0 0 0 0 0 0 -0 -0 -0 0 -0 0 0 0 0 0 0 0 0 0 0 0 0 0 0 0 0 0 0 0
0 0 0 0 -0 -0 0 0 -0 0 -0 0 0 0 0 0 0 0 -0 -0 -0 0 -0 0 0 0 0 0 0 0 0 0 0 0 0 0 0 0 0 0 0 0 0 0
0 0 0 -0 -0 -0 0 -0 0 -0 0 -0 0 -0 0 0 0 -0 0 0 0 0 0 0 0 0 0 0 0 0 0 0 0 0 0 0 0 0 0 0 0 0 0 0
0 0 0 -0 -0 0 -0 0 -0 -0 -0 -0 -0 0 0 0 0 0 0 0 0 0 0 0 0 -0 -0 -0 0 0 0 0 0 0 0 0 0 0 0 0 0 0 0 0
0 0 0 -0 -0 0 -0 -0 -0 0 -0 0 0 0 0 0 -0 -0 0 0 -0 0 0 0 0 -0 -0 -0 0 0 0 0 0 0 0 0 0 0 0 0 0 0 0 0
0 0 -0 -0 -0 0 -0 0 -0 -0 0 0 0 0 0 0 -0 -0 0 0 -0 0 0 0 0 0 0 0 -0 0 0 0 0 0 0 0 0 0 0 0 0 0 0 0
0 -0 -0 -0 -0 -0 -0 0 0 -0 -0 0 -0 0 0 0 0 0 0 0 0 -0 -0 0 0 0 0 0 0 0 0 0 0 0 0 0 0 0 0 0 0 0 0 0
0 -0 0 -0 -0 0 0 0 -0 -0 0 0 0 0 0 0 0 0 0 0 0 0 0 0 0 0 0 0 -0 -0 -0 -0 -0 0 0 0 0 0 0 0 0 0 0 0
0 0 -0 0 0 0 0 0 0 -0 0 0 0 0 0 0 0 -0 0 0 0 0 0 0 0 0 0 0 0 -0 -0 -0 0 0 0 0 0 0 0 0 0 0 0 0
0 -0 -0 0 0 0 0 0 0 0 0 0 0 0 0 0 0 0 0 0 0 0 0 0 0 0 0 0 0 -0 -0 -0 -0 -0 0 0 0 0 0 0 0 0 0 0
-0 -0 0 0 0 0 0 0 0 0 0 0 0 0 0 0 0 0 0 0 0 0 0 0 0 0 0 0 0 0 -0 -0 -0 -0 -0 0 0 0 0 0 0 0 0 0
0 -0 0 0 0 0 0 0 0 0 0 0 0 0 0 0 0 0 0 0 0 0 0 0 0 0 0 0 0 0 0 0 0 0 -0 0 0 0 0 0 0 0 0 0
0 0 0 0 0 0 0 0 0 0 0 0 0 0 0 0 0 0 0 0 0 0 0 0 0 0 0 0 0 0 0 0 0 0 -0 -0 0 0 0 0 0 0 0 0
0 0 0 0 0 0 0 0 0 0 0 0 0 0 0 0 0 0 0 0 0 -0 0 0 0 0 0 0 0 0 0 0 -0 0 0 0 0 0 0 0 0 0 0 0
0 0 0 0 0 0 0 0 0 0 0 0 0 0 0 0 0 0 0 0 0 0 0 0 0 0 0 0 0 0 0 0 0 -0 0 0 0 0 0 0 0 0 0 0
0 0 0 0 0 0 0 0 0 0 0 0 0 0 0 0 0 0 0 0 0 0 0 0 0 0 0 0 0 0 0 0 0 0 0 -0 0 0 0 0 0 0 0 0
0 0 0 0 0 0 0 0 0 0 0 0 0 0 0 0 0 0 0 0 0 0 0 0 0 0 0 0 0 0 0 0 -0 0 0 0 -0 -0 0 0 0 0 0 0
0 0 0 0 0 0 0 0 0 0 0 0 0 0 0 0 0 0 0 0 0 0 0 0 0 0 0 0 0 0 0 0 0 -0 -0 0 0 0 0 0 0 0 0 0
0 0 0 0 0 0 0 0 0 0 0 0 0 0 0 0 0 0 0 0 0 0 0 0 0 0 0 0 0 0 0 0 0 0 -0 -0 0 0 -0 0 0 0 0 0
0 0 0 0 0 0 0 0 0 0 0 0 0 0 0 0 0 0 0 0 0 0 0 0 0 0 0 0 0 0 0 0 0 0 0 -0 -0 0 -0 -0 -0 0 0 0
0 0 0 0 0 0 0 0 0 0 0 0 0 0 0 0 0 0 0 0 0 0 0 0 0 0 0 0 0 0 0 0 0 0 0 0 -0 -0 -0 0 0 -0 -0 0
0 0 0 0 0 0 0 0 0 0 0 0 0 0 0 0 0 0 0 0 0 0 0 0 0 0 0 0 0 0 0 0 0 0 0 0 -0 -0 -0 -0 -0 -0 0 -0
0 0 0 0 0 -0 0 0 0 0 0 0 0 0 0 0 0 -0 -0 0 0 0 0 0 0 0 0 0 0 0 0 0 0 0 0 -0 -0 -0 -0 -0 -0 0 -0 -0
0 0 0 0 0 0 0 0 0 0 0 0 0 0 0 0 -0 -0 -0 0 0 0 0 0 0 0 0 0 0 0 0 0 0 0 0 0 -0 -0 -0 -0 -0 -0 -0 0
0 0 0 0 0 0 0 0 0 0 0 0 0 0 0 -0 0 0 0 0 0 0 0 0 0 0 0 0 0 0 0 0 0 0 -0 -0 -0 -0 -0 -0 -0 -0 -0 -0
Wind_Speed_500mb
52 51 49 47 45 40 18 6 7 26 10 16 8 10 10 2 8 5 4 7 11 10 12 16 24 20 6 13 18 26 19 18 29 41 32 39 48 39 53 30 42 39 33 27
54 52 46 41 38 39 18 8 15 26 10 3 11 13 15 12 7 12 7 5 7 9 16 9 13 14 18 14 20 14 22 21 27 34 29 35 33 38 38 49 45 42 35 31
56 50 40 34 31 27 16 11 2 16 28 17 12 10 10 8 10 7 8 9 9 11 14 10 12 11 10 14 26 19 19 28 37 29 13 23 23 48 44 37 33 43 39 38
55 45 34 27 24 24 15 16 11 10 13 17 16 13 2 6 9 7 5 8 10 12 10 9 11 13 20 14 31 23 25 35 38 37 39 32 29 30 25 33 36 37 37 37
49 39 30 23 22 24 19 9 6 15 14 5 8 7 14 12 10 4 11 3 3 12 11 18 27 27 24 21 8 20 29 24 35 37 39 32 37 35 35 37 41 44 45 38
42 35 28 21 25 26 13 17 13 9 3 6 6 16 14 13 8 7 5 5 18 14 15 19 32 36 36 33 25 23 12 16 23 34 35 41 44 45 39 41 44 41 42 36
37 29 24 20 24 36 14 13 12 15 8 13 14 8 5 8 6 7 8 10 18 11 27 35 41 48 48 46 41 41 30 22 10 22 25 32 27 14 21 27 33 46 43 43
28 22 20 19 23 33 18 12 11 11 10 10 14 10 12 8 3 12 13 12 16 21 25 18 21 7 16 32 36 37 35 26 13 14 26 30 17 17 9 9 25 39 40 46
21 17 15 18 19 27 21 16 15 9 5 20 12 11 5 3 5 11 7 15 10 15 14 9 13 9 16 9 9 28 35 31 23 23 25 31 17 7 8 6 21 30 31 29
17 14 13 15 15 19 21 7 18 8 9 19 17 13 2 3 3 11 3 16 10 7 6 7 6 7 4 6 12 9 14 22 30 27 26 28 15 13 7 9 3 25 26 32
14 12 11 15 13 12 20 3 8 9 8 14 10 6 1 5 11 9 22 8 2 11 5 7 6 6 6 3 5 15 10 10 18 23 31 39 18 14 15 16 19 26 28 23
13 10 10 14 10 8 16 7 8 4 2 8 3 4 1 4 5 2 10 10 11 11 6 5 5 4 7 12 6 13 5 8 9 12 14 5 1 14 27 31 24 27 33 31
11 9 10 12 7 4 7 3 7 8 7 10 8 7 4 3 2 8 5 8 9 5 7 13 6 4 4 7 4 10 6 15 7 24 24 25 20 29 17 15 25 33 36 36
7 8 5 4 2 1 3 1 12 8 16 9 7 6 4 7 5 6 5 4 8 10 16 11 3 3 12 5 11 2 4 16 9 15 34 45 9 27 29 34 36 40 40 37
6 5 4 4 2 5 5 5 10 7 9 14 3 8 10 5 9 6 4 5 8 5 8 7 1 2 2 7 7 0 5 5 6 7 38 33 41 32 35 35 37 39 41 40
8 6 7 8 8 9 7 3 4 7 8 11 3 9 15 15 12 9 8 9 9 15 9 2 2 3 4 5 4 2 8 11 18 14 30 28 34 34 26 35 39 41 41 40
12 9 9 11 13 11 6 4 9 13 11 9 10 8 9 17 13 7 14 10 12 13 7 9 3 9 10 5 6 15 10 8 9 22 32 31 32 34 35 33 34 31 33 44
15 14 13 14 17 19 13 15 14 18 8 9 6 9 14 20 12 9 9 8 15 12 9 11 10 7 5 3 19 23 9 12 11 13 19 18 45 36 38 33 36 30 22 21
15 14 16 15 5 6 14 22 22 11 10 7 9 6 7 19 9 8 10 11 8 13 8 7 3 4 5 12 16 23 23 16 18 14 22 29 30 48 43 44 43 43 35 31
14 8 4 5 8 14 24 4 6 8 11 12 11 16 13 19 19 15 12 9 6 5 10 5 5 5 9 5 11 14 19 21 19 22 25 29 30 31 48 48 44 38 34 29
4 7 5 14 21 9 5 7 12 14 9 16 17 20 16 8 6 7 17 7 6 5 8 4 4 3 8 11 12 14 15 17 19 17 20 19 24 28 25 36 46 39 33 28
11 9 6 15 5 8 12 10 13 11 5 8 19 7 13 7 3 7 11 6 4 5 8 3 3 3 6 10 17 16 14 16 19 21 19 23 22 22 25 24 28 40 38 29
7 3 5 6 11 7 11 7 2 3 12 3 24 27 21 6 1 4 2 5 7 10 6 5 4 7 10 10 13 18 14 12 17 17 19 21 24 22 20 26 23 24 38 41
9 14 8 10 9 4 1 12 22 18 9 12 6 25 15 11 3 5 6 9 4 1 3 5 8 10 15 12 12 15 14 16 18 22 19 22 25 25 23 22 22 22 22 32
10 6 8 13 26 56 21 3 7 15 8 7 19 10 9 10 3 7 6 5 5 4 2 5 12 11 12 16 19 18 12 11 19 22 21 20 22 23 22 19 17 19 21 27
9 12 21 19 20 23 34 28 23 12 9 9 8 5 3 1 3 4 6 8 6 8 16 22 11 10 11 15 18 16 15 13 10 19 20 20 19 19 19 19 15 17 17 22
9 13 17 26 25 26 16 23 16 11 15 10 6 3 6 6 7 8 9 8 10 15 10 11 12 14 12 17 19 18 13 9 8 16 15 14 16 17 16 16 14 14 16 14
Wind_Direction_500mb
350 350 350 349 351 1 27 298 269 350 349 242 343 51 16 323 22 28 27 289 317 292 322 280 278 273 345 69 325 306 312 281 248 248 229 238 244 249 233 239 227 234 252 238
349 348 349 349 357 5 34 8 41 6 310 292 94 125 97 48 28 24 9 13 346 7 306 298 262 293 340 349 296 315 329 236 248 244 261 265 252 246 261 233 252 229 223 234
347 347 350 354 5 18 55 316 199 65 52 42 86 114 39 106 55 67 11 343 302 306 270 222 277 274 332 324 286 10 309 274 279 272 297 343 279 232 244 259 242 238 235 225
348 350 357 6 25 55 35 8 60 357 21 51 67 57 43 66 49 25 15 51 1 10 300 304 267 270 292 262 271 248 250 265 268 278 286 278 280 293 287 255 261 271 260 234
351 356 4 23 55 61 42 29 68 72 80 20 97 165 68 37 9 341 41 68 323 301 286 297 312 304 284 281 266 275 275 257 284 270 267 263 261 246 249 260 262 271 274 276
356 1 13 41 76 57 50 67 71 66 13 50 22 38 36 21 326 29 7 319 295 296 348 304 291 289 285 269 262 263 267 280 283 265 259 250 244 242 239 244 246 248 251 252
359 9 28 65 88 77 76 84 76 85 80 66 59 43 67 15 322 284 236 292 271 330 312 296 274 260 257 257 257 250 243 228 282 279 283 258 250 238 266 266 244 241 250 262
4 19 43 85 88 90 67 61 65 54 72 67 85 35 18 68 280 268 268 256 297 307 293 304 295 274 289 256 245 248 239 245 229 259 262 260 246 45 25 351 229 352 248 230
4 35 63 103 94 93 76 72 73 73 3 44 18 34 71 26 300 210 235 262 304 298 320 296 295 320 7 311 286 250 243 233 248 247 265 256 79 79 25 320 242 13 3 3
7 48 82 113 111 97 83 52 95 35 40 49 28 36 55 215 294 281 316 341 320 322 318 292 306 338 74 327 312 322 271 253 245 230 249 265 62 99 278 238 58 355 352 343
17 52 103 123 116 99 88 11 57 63 18 68 43 69 281 193 284 312 14 282 331 17 288 335 359 327 348 256 270 307 303 263 225 237 247 251 60 309 272 21 318 317 317 316
22 47 100 152 129 104 78 352 329 11 270 44 45 12 28 178 231 254 338 35 15 352 329 358 32 317 321 323 357 339 290 357 317 283 241 201 317 294 296 294 295 298 300 291
30 68 103 135 144 125 107 1 306 0 297 228 217 189 168 123 191 186 301 32 349 327 302 318 5 289 2 326 352 324 351 359 304 315 265 290 319 305 319 332 289 286 281 275
14 42 74 118 135 35 54 353 294 341 307 282 180 158 175 166 169 163 199 273 313 297 294 293 222 282 342 327 314 274 314 302 277 270 292 331 258 341 316 309 295 288 282 276
348 342 343 335 332 335 281 236 273 298 318 317 311 179 227 179 203 208 235 272 305 269 265 212 124 310 268 266 275 10 253 292 301 296 307 292 290 301 303 295 290 283 280 277
324 324 319 306 310 333 39 308 215 269 323 288 261 183 182 205 210 230 247 256 267 279 296 86 282 250 253 252 294 88 40 336 330 289 327 319 314 313 311 305 296 288 275 268
301 308 310 294 287 284 245 284 214 294 301 257 276 155 182 196 216 227 215 242 247 272 242 261 184 206 208 285 330 2 166 270 321 356 352 355 349 336 332 329 325 306 285 265
289 292 299 294 287 292 289 268 268 293 238 253 265 292 162 183 181 194 215 208 221 253 238 244 191 143 5 282 318 342 8 291 286 353 9 8 4 355 358 2 4 6 358 356
289 287 294 300 263 236 244 273 283 243 207 234 221 265 325 175 151 165 162 174 219 246 221 271 110 81 215 270 337 339 1 350 346 16 10 9 19 12 6 13 15 17 13 8
290 294 343 247 221 266 292 287 219 219 215 224 242 255 268 202 169 182 165 187 230 221 234 244 146 232 242 20 338 352 350 359 350 1 15 11 21 13 14 17 17 17 16 13
345 248 236 257 281 295 242 246 221 185 232 215 228 241 292 225 226 199 201 167 240 248 177 209 226 258 54 14 348 344 357 359 356 360 5 21 15 16 4 9 16 22 27 24
245 258 303 290 241 226 244 228 188 203 252 90 287 3 250 289 236 225 176 188 253 269 171 149 278 229 75 11 336 345 350 345 4 359 6 11 16 8 18 13 22 24 45 51
307 253 231 230 200 261 234 256 64 178 148 267 331 319 273 170 230 279 111 234 205 194 151 210 235 107 64 6 342 336 351 345 357 11 15 17 18 25 30 24 28 23 36 40
251 201 247 240 216 228 56 359 324 55 334 326 259 270 6 20 71 255 247 230 242 65 34 352 77 38 34 0 333 336 359 343 360 11 21 24 24 32 46 38 31 32 38 36
257 249 250 234 7 350 342 303 33 353 353 287 287 91 142 208 7 276 335 278 48 215 300 71 85 38 30 357 346 338 355 334 357 2 11 10 22 29 34 44 42 36 39 43
245 247 259 313 335 9 344 9 22 359 339 269 259 121 256 292 340 268 288 11 1 24 336 60 52 20 360 349 340 330 325 329 2 357 359 356 3 13 31 30 36 42 46 50
236 219 47 285 6 17 343 9 15 351 332 9 17 329 35 331 277 14 20 9 345 22 9 22 13 4 331 333 330 327 328 297 7 344 346 356 349 344 13 37 40 48 42 65
Wind_Speed_850mb
52 51 49 47 45 40 18 6 7 26 10 16 8 10 10 2 8 5 4 7 11 10 12 16 24 20 6 13 18 26 19 18 29 41 32 39 48 39 53 30 42 39 33 27
54 52 46 41 38 39 18 8 15 26 10 3 11 13 15 12 7 12 7 5 7 9 16 9 13 14 18 14 20 14 22 21 27 34 29 35 33 38 38 49 45 42 35 31
56 50 40 34 31 27 16 11 2 16 28 17 12 10 10 8 10 7 8 9 9 11 14 10 12 11 10 14 26 19 19 28 37 29 13 23 23 48 44 37 33 43 39 38
55 45 34 27 24 24 15 16 11 10 13 17 16 13 2 6 9 7 5 8 10 12 10 9 11 13 20 14 31 23 25 35 38 37 39 32 29 30 25 33 36 37 37 37
49 39 30 23 22 24 19 9 6 15 14 5 8 7 14 12 10 4 11 3 3 12 11 18 27 27 24 21 8 20 29 24 35 37 39 32 37 35 35 37 41 44 45 38
42 35 28 21 25 26 13 17 13 9 3 6 6 16 14 13 8 7 5 5 18 14 15 19 32 36 36 33 25 23 12 16 23 34 35 41 44 45 39 41 44 41 42 36
37 29 24 20 24 36 14 13 12 15 8 13 14 8 5 8 6 7 8 10 18 11 27 35 41 48 48 46 41 41 30 22 10 22 25 32 27 14 21 27 33 46 43 43
28 22 20 19 23 33 18 12 11 11 10 10 14 10 12 8 3 12 13 12 16 21 25 18 21 7 16 32 36 37 35 26 13 14 26 30 17 17 9 9 25 39 40 46
21 17 15 18 19 27 21 16 15 9 5 20 12 11 5 3 5 11 7 15 10 15 14 9 13 9 16 9 9 28 35 31 23 23 25 31 17 7 8 6 21 30 31 29
17 14 13 15 15 19 21 7 18 8 9 19 17 13 2 3 3 11 3 16 10 7 6 7 6 7 4 6 12 9 14 22 30 27 26 28 15 13 7 9 3 25 26 32
14 12 11 15 13 12 20 3 8 9 8 14 10 6 1 5 11 9 22 8 2 11 5 7 6 6 6 3 5 15 10 10 18 23 31 39 18 14 15 16 19 26 28 23
13 10 10 14 10 8 16 7 8 4 2 8 3 4 1 4 5 2 10 10 11 11 6 5 5 4 7 12 6 13 5 8 9 12 14 5 1 14 27 31 24 27 33 31
11 9 10 12 7 4 7 3 7 8 7 10 8 7 4 3 2 8 5 8 9 5 7 13 6 4 4 7 4 10 6 15 7 24 24 25 20 29 17 15 25 33 36 36
7 8 5 4 2 1 3 1 12 8 16 9 7 6 4 7 5 6 5 4 8 10 16 11 3 3 12 5 11 2 4 16 9 15 34 45 9 27 29 34 36 40 40 37
6 5 4 4 2 5 5 5 10 7 9 14 3 8 10 5 9 6 4 5 8 5 8 7 1 2 2 7 7 0 5 5 6 7 38 33 41 32 35 35 37 39 41 40
8 6 7 8 8 9 7 3 4 7 8 11 3 9 15 15 12 9 8 9 9 15 9 2 2 3 4 5 4 2 8 11 18 14 30 28 34 34 26 35 39 41 41 40
12 9 9 11 13 11 6 4 9 13 11 9 10 8 9 17 13 7 14 10 12 13 7 9 3 9 10 5 6 15 10 8 9 22 32 31 32 34 35 33 34 31 33 44
15 14 13 14 17 19 13 15 14 18 8 9 6 9 14 20 12 9 9 8 15 12 9 11 10 7 5 3 19 23 9 12 11 13 19 18 45 36 38 33 36 30 22 21
15 14 16 15 5 6 14 22 22 11 10 7 9 6 7 19 9 8 10 11 8 13 8 7 3 4 5 12 16 23 23 16 18 14 22 29 30 48 43 44 43 43 35 31
14 8 4 5 8 14 24 4 6 8 11 12 11 16 13 19 19 15 12 9 6 5 10 5 5 5 9 5 11 14 19 21 19 22 25 29 30 31 48 48 44 38 34 29
4 7 5 14 21 9 5 7 12 14 9 16 17 20 16 8 6 7 17 7 6 5 8 4 4 3 8 11 12 14 15 17 19 17 20 19 24 28 25 36 46 39 33 28
11 9 6 15 5 8 12 10 13 11 5 8 19 7 13 7 3 7 11 6 4 5 8 3 3 3 6 10 17 16 14 16 19 21 19 23 22 22 25 24 28 40 38 29
7 3 5 6 11 7 11 7 2 3 12 3 24 27 21 6 1 4 2 5 7 10 6 5 4 7 10 10 13 18 14 12 17 17 19 21 24 22 20 26 23 24 38 41
9 14 8 10 9 4 1 12 22 18 9 12 6 25 15 11 3 5 6 9 4 1 3 5 8 10 15 12 12 15 14 16 18 22 19 22 25 25 23 22 22 22 22 32
10 6 8 13 26 56 21 3 7 15 8 7 19 10 9 10 3 7 6 5 5 4 2 5 12 11 12 16 19 18 12 11 19 22 21 20 22 23 22 19 17 19 21 27
9 12 21 19 20 23 34 28 23 12 9 9 8 5 3 1 3 4 6 8 6 8 16 22 11 10 11 15 18 16 15 13 10 19 20 20 19 19 19 19 15 17 17 22
9 13 17 26 25 26 16 23 16 11 15 10 6 3 6 6 7 8 9 8 10 15 10 11 12 14 12 17 19 18 13 9 8 16 15 14 16 17 16 16 14 14 16 14
Wind_Direction_850mb
350 350 350 349 351 1 27 298 269 350 349 242 343 51 16 323 22 28 27 289 317 292 322 280 278 273 345 69 325 306 312 281 248 248 229 238 244 249 233 239 227 234 252 238
349 348 349 349 357 5 34 8 41 6 310 292 94 125 97 48 28 24 9 13 346 7 306 298 262 293 340 349 296 315 329 236 248 244 261 265 252 246 261 233 252 229 223 234
347 347 350 354 5 18 55 316 199 65 52 42 86 114 39 106 55 67 11 343 302 306 270 222 277 274 332 324 286 10 309 274 279 272 297 343 279 232 244 259 242 238 235 225
348 350 357 6 25 55 35 8 60 357 21 51 67 57 43 66 49 25 15 51 1 10 300 304 267 270 292 262 271 248 250 265 268 278 286 278 280 293 287 255 261 271 260 234
351 356 4 23 55 61 42 29 68 72 80 20 97 165 68 37 9 341 41 68 323 301 286 297 312 304 284 281 266 275 275 257 284 270 267 263 261 246 249 260 262 271 274 276
356 1 13 41 76 57 50 67 71 66 13 50 22 38 36 21 326 29 7 319 295 296 348 304 291 289 285 269 262 263 267 280 283 265 259 250 244 242 239 244 246 248 251 252
359 9 28 65 88 77 76 84 76 85 80 66 59 43 67 15 322 284 236 292 271 330 312 296 274 260 257 257 257 250 243 228 282 279 283 258 250 238 266 266 244 241 250 262
4 19 43 85 88 90 67 61 65 54 72 67 85 35 18 68 280 268 268 256 297 307 293 304 295 274 289 256 245 248 239 245 229 259 262 260 246 45 25 351 229 352 248 230
4 35 63 103 94 93 76 72 73 73 3 44 18 34 71 26 300 210 235 262 304 298 320 296 295 320 7 311 286 250 243 233 248 247 265 256 79 79 25 320 242 13 3 3
7 48 82 113 111 97 83 52 95 35 40 49 28 36 55 215 294 281 316 341 320 322 318 292 306 338 74 327 312 322 271 253 245 230 249 265 62 99 278 238 58 355 352 343
17 52 103 123 116 99 88 11 57 63 18 68 43 69 281 193 284 312 14 282 331 17 288 335 359 327 348 256 270 307 303 263 225 237 247 251 60 309 272 21 318 317 317 316
22 47 100 152 129 104 78 352 329 11 270 44 45 12 28 178 231 254 338 35 15 352 329 358 32 317 321 323 357 339 290 357 317 283 241 201 317 294 296 294 295 298 300 291
30 68 103 135 144 125 107 1 306 0 297 228 217 189 168 123 191 186 301 32 349 327 302 318 5 289 2 326 352 324 351 359 304 315 265 290 319 305 319 332 289 286 281 275
14 42 74 118 135 35 54 353 294 341 307 282 180 158 175 166 169 163 199 273 313 297 294 293 222 282 342 327 314 274 314 302 277 270 292 331 258 341 316 309 295 288 282 276
348 342 343 335 332 335 281 236 273 298 318 317 311 179 227 179 203 208 235 272 305 269 265 212 124 310 268 266 275 10 253 292 301 296 307 292 290 301 303 295 290 283 280 277
324 324 319 306 310 333 39 308 215 269 323 288 261 183 182 205 210 230 247 256 267 279 296 86 282 250 253 252 294 88 40 336 330 289 327 319 314 313 311 305 296 288 275 268
301 308 310 294 287 284 245 284 214 294 301 257 276 155 182 196 216 227 215 242 247 272 242 261 184 206 208 285 330 2 166 270 321 356 352 355 349 336 332 329 325 306 285 265
289 292 299 294 287 292 289 268 268 293 238 253 265 292 162 183 181 194 215 208 221 253 238 244 191 143 5 282 318 342 8 291 286 353 9 8 4 355 358 2 4 6 358 356
289 287 294 300 263 236 244 273 283 243 207 234 221 265 325 175 151 165 162 174 219 246 221 271 110 81 215 270 337 339 1 350 346 16 10 9 19 12 6 13 15 17 13 8
290 294 343 247 221 266 292 287 219 219 215 224 242 255 268 202 169 182 165 187 230 221 234 244 146 232 242 20 338 352 350 359 350 1 15 11 21 13 14 17 17 17 16 13
345 248 236 257 281 295 242 246 221 185 232 215 228 241 292 225 226 199 201 167 240 248 177 209 226 258 54 14 348 344 357 359 356 360 5 21 15 16 4 9 16 22 27 24
245 258 303 290 241 226 244 228 188 203 252 90 287 3 250 289 236 225 176 188 253 269 171 149 278 229 75 11 336 345 350 345 4 359 6 11 16 8 18 13 22 24 45 51
307 253 231 230 200 261 234 256 64 178 148 267 331 319 273 170 230 279 111 234 205 194 151 210 235 107 64 6 342 336 351 345 357 11 15 17 18 25 30 24 28 23 36 40
251 201 247 240 216 228 56 359 324 55 334 326 259 270 6 20 71 255 247 230 242 65 34 352 77 38 34 0 333 336 359 343 360 11 21 24 24 32 46 38 31 32 38 36
257 249 250 234 7 350 342 303 33 353 353 287 287 91 142 208 7 276 335 278 48 215 300 71 85 38 30 357 346 338 355 334 357 2 11 10 22 29 34 44 42 36 39 43
245 247 259 313 335 9 344 9 22 359 339 269 259 121 256 292 340 268 288 11 1 24 336 60 52 20 360 349 340 330 325 329 2 357 359 356 3 13 31 30 36 42 46 50
236 219 47 285 6 17 343 9 15 351 332 9 17 329 35 331 277 14 20 9 345 22 9 22 13 4 331 333 330 327 328 297 7 344 346 356 349 344 13 37 40 48 42 65